Flag for Netherlands Weather past 2 weeks in Emmen, Netherlands

Now
74 °F

Passing clouds.


Feels Like: 77 °F
Forecast: 57 / 75 °F
Wind: 3 mph from Northeast

Location: Meppen

Current Time: Sep 18, 2014 at 2:37:48 PM

Latest Report: Sep 18, 2014 at 1:00 PM


Visibility: 19 mi

Pressure: 29.87 "Hg

Humidity: 58%

Dew point: 58 °F

Location of EmmenLocation

Historic Weather in Emmen — Graph

°F

Emmen temperature yesterday

Maximum temperature yesterday: 76 °F (at 4:00 PM)
Minimum temperature yesterday: 58 °F (at 8:00 AM)
Average temperature yesterday: 66 °F

Past Weeks' High & Low Weather Summary

 TemperatureHumidityPressure
High77 °F (Sep 5, 6:00 PM)96% (Sep 15, 6:00 AM)30.29 "Hg (Sep 15, 6:00 AM)
Low47 °F (Sep 15, 7:00 AM)46% (Sep 8, 4:00 PM)29.87 "Hg (Sep 18, 1:00 PM)
Average62 °F79%30.07 "Hg
* Reported Sep 3 1:00 PM — Sep 18 1:00 PM, Emmen, Weather by CustomWeather, © 2014

Note: Actual official high and low records may vary slightly from our data, if they occured in-between our weather recording intervals... More about our weather records

Advertising

Emmen weather history for previous 24 hours

 ConditionsComfort  
Time TempWeatherWind HumidityBarometerVisibility
1:00 PM
Sep 18
74 °FPassing clouds.3 mph58%29.87 "Hg19 mi
12:00 PM72 °FPassing clouds.2 mph61%29.88 "Hg11 mi
10:00 AM64 °FSunny.2 mph78%29.90 "Hg7 mi
9:00 AM59 °FFog.1 mph86%29.89 "Hg4 mi
8:00 AM55 °FFog.2 mph93%29.88 "Hg3 mi
7:00 AM55 °FFog.1 mph93%29.88 "Hg2 mi
6:00 AM55 °FCool.1 mph93%29.89 "Hg1 mi
4:00 AM56 °FCool.1 mph88%29.89 "Hg2 mi
3:00 AM58 °FCool.2 mph88%29.90 "Hg3 mi
2:00 AM58 °FCool.2 mph84%29.91 "Hg4 mi
1:00 AM60 °FCool.2 mph82%29.91 "Hg4 mi
12:00 AM62 °FCool.2 mph78%29.91 "Hg4 mi
10:00 PM
Sep 17
65 °FMild.2 mph71%29.92 "Hg5 mi
9:00 PM66 °FMild.2 mph68%29.92 "Hg4 mi
7:00 PM73 °FMild.3 mph53%29.91 "Hg4 mi
6:00 PM75 °FMild.3 mph49%29.90 "Hg4 mi
4:00 PM76 °FMild.3 mph46%29.91 "Hg4 mi
3:00 PM76 °FMild.3 mph49%29.92 "Hg4 mi
2:00 PM75 °FPassing clouds.3 mph51%29.93 "Hg15 mi
Weather by CustomWeather, © 2014

See weather overviewHow to use our weather pages